COSMOS 1275 DEB, 13485

Orbit data source: Space-Track

COSMOS 1275 DEB, 13485 is space debris in LEO originally from a launch on Thu, 04 Jun 1981 UTC launched from the Plesetsk Missile And Space Complex (PKMTR). Debris objects in space refer to the collection of defunct objects orbiting the Earth. Examples of debris include non-operational satellites, rocket bodies, and fragments generated from explosions, collisions, or faulty payload assembly.

Loading next visibility...
Identifier
13485, 1981-053GF
Orbit
LEO
Country
Flag of CISCIS
Related business
Manufacturer
Unknown
Mission
Spacecraft
Bus & Motor
Unknown
Mass
Unknown
Launch date (UTC)
1981-06-04 (45 years ago)
Launch vehicle
Unknown
Launch site
Plesetsk Missile And Space Complex (PKMTR)
Object type
Payload
Rocket body
Debris
Shape & HBR
Unknown shape, 0.2 m
Radar Cross Section
Small (<0.1 m²)

Expand to show TLE details & history
Last TLE update: 13 hours ago

TLE from 13 hours ago
0 COSMOS 1275 DEB
1 13485U 81053GF  26067.94612146  .00000219  00000-0  19454-3 0  9990
2 13485  82.9381 240.2754 0065953 235.2460 251.6647 13.79634673200033
Epoch: 2026-03-08T22:42Z
TLE epoch observation values (Epoch: 2026-03-08T22:42:24.894Z)
Latitude
53.31244°
Longitude
-96.49564°
Altitude
989.425 km
Speed
7.354 km/s
True Right ascension
03h 23m 01s
True Declination
53° 09' 10"
Sunlit
Object was in daylight at epoch
Visualization orbit readout
Latitude
Unknown
Longitude
Unknown
Altitude
Unknown
Speed
Unknown
Apparent Right ascension
Unknown
Apparent Declination
Unknown
Sunlit
N/A
Visualization observer readout
Local Sidereal Time
16:12:36
Azimuth
Unknown
Elevation
Unknown
Doppler factor
Unknown
Orbital elements
Apogee altitude
1,010.738 km
Perigee altitude
913.913 km
Semi-major axis
7,340.462 km
Eccentricity
0.0066
Inclination
82.9381°
RAAN
240.2754°
Arg. of periapsis
235.246°
True anomaly
250.94918°
Mean anomaly
251.6647°
Eccentric anomaly
251.30675°
Mean motion
3.4511 °/min
Orbital period
104.31 mins
BSTAR
0.00019454
Loading maneuver chart data...
Computing Atmospheric mass density...
Loading historical data...
Loading historical data...
Loading historical data...
Loading historical data...
Loading historical data...
Loading historical data...
Loading historical data...

Documentation

Showing up to 5 results
|